Regional Weather Roundup
Issued by NWS Binghamton, NY

Current Version | Previous Version | Text Only | Print | Product List | Glossary On
Versions: 1 2 3 4 5 6 7 8 9 10 11 12 13 14 15 16 17 18 19 20 21 22 23 24 25 26 27 28 29 30 31 32 33 34 35 36 37 38 39 40 41 42 43 44 45 46 47 48 49 50
000
ASUS41 KBGM 180410
RWRBGM
RWRBGM
BINGHAMTON REGIONAL WEATHER ROUNDUP
NATIONAL WEATHER SERVICE BINGHAMTON NY
1200 AM EDT SAT APR 18 2015

Note: "fair" indicates few or no clouds below 12,000 feet with no
significant weather and/or obstructions to visibility.

* = Station(s) that does not report precipitation, such as rain,
snow, etc, also no thunder or fog.

!NYZ009-015>018-022>025-036-037-044>046-055>057-062-180500
...CENTRAL NEW YORK...

CITY           SKY/WX    TMP DP  RH WIND       PRES   REMARKS
BINGHAMTON     CLEAR     52  45  77 W3        30.00S
CORTLAND       FAIR      43  43 100 CALM      30.02S FOG
DANSVILLE      CLEAR     50  42  74 S3        30.02S
ELMIRA         CLEAR     44  42  93 CALM      30.01S
ITHACA         NOT AVBL
MONTICELLO     CLEAR     50  45  81 NW6       30.01S
PENN YAN       CLEAR     52  43  71 SW7       30.00S
ROME           CLEAR     41  40  96 CALM      29.99S
SYRACUSE       PTCLDY    49  45  86 CALM      29.98S
$$

!PAZ038>040-043-044-047-048-072-180500
...NORTHEAST PENNSYLVANIA...

CITY           SKY/WX    TMP DP  RH WIND       PRES   REMARKS
HAZLETON       MOCLDY    57  50  77 N6        30.04S
SCRANTON       PTCLDY    55  49  80 E7        30.00S
TOWANDA*       CLEAR     48  45  87 MISG      30.02S
$$
&&
KEY
WCI = WIND CHILL INDEX
VSB = VISIBILITY
HX  = HEAT INDEX
$$



USA.gov is the U.S. government's official web portal to all federal, state and local government web resources and services.